• In Belarus
  • List of Countries
  • For 7 days
  • Water Temperature
  • Satellite Maps
  • Weather Map
  • Weather Widgets
  • user-avatar
    Login

    Hourly Weather Jewłach

    Today, 21 November, Tuesday

    Time Temperature Precipitation Wind Pressure Humidity
    00:00 +16°C° 0 mm 2 mps 757 mmHg 39%
    01:00 +15°C° 0 mm 2 mps 757 mmHg 39%
    02:00 +15°C° 0 mm 2 mps 757 mmHg 39%
    03:00 +15°C° 0 mm 2 mps 756 mmHg 39%
    04:00 +15°C° 0 mm 2 mps 756 mmHg 39%
    05:00 +15°C° 0 mm 2 mps 756 mmHg 39%
    06:00 +15°C° 0 mm 2 mps 756 mmHg 40%
    07:00 +16°C° 0 mm 2 mps 756 mmHg 38%
    08:00 +17°C° 0 mm 2 mps 755 mmHg 36%
    09:00 +18°C° 0 mm 2 mps 754 mmHg 34%
    10:00 +19°C° 0 mm 2 mps 754 mmHg 31%
    11:00 +20°C° 0 mm 2 mps 754 mmHg 29%
    12:00 +21°C° 0 mm 3 mps 753 mmHg 27%
    13:00 +21°C° 0 mm 3 mps 753 mmHg 27%
    14:00 +21°C° 0 mm 3 mps 752 mmHg 28%
    15:00 +21°C° 0 mm 2 mps 752 mmHg 29%
    16:00 +20°C° 0 mm 2 mps 752 mmHg 31%
    17:00 +19°C° 0 mm 2 mps 752 mmHg 33%
    18:00 +18°C° 0 mm 2 mps 752 mmHg 36%
    19:00 +17°C° 0 mm 2 mps 752 mmHg 37%
    20:00 +17°C° 0 mm 2 mps 751 mmHg 38%
    21:00 +16°C° 0 mm 2 mps 751 mmHg 39%
    22:00 +16°C° 0 mm 2 mps 751 mmHg 39%
    23:00 +16°C° 0 mm 2 mps 750 mmHg 40%

    Tomorrow, 22 November, Wednesday

    Time Temperature Precipitation Wind Pressure Humidity
    00:00 +15°C° 0 mm 1 mps 750 mmHg 40%
    01:00 +15°C° 0 mm 2 mps 750 mmHg 41%
    02:00 +14°C° 0 mm 3 mps 750 mmHg 41%
    03:00 +14°C° 0 mm 4 mps 750 mmHg 41%
    04:00 +14°C° 0 mm 5 mps 750 mmHg 44%
    05:00 +13°C° 0 mm 6 mps 751 mmHg 47%
    06:00 +13°C° 0 mm 6 mps 751 mmHg 49%
    07:00 +12°C° 0 mm 7 mps 751 mmHg 48%
    08:00 +14°C° 0 mm 7 mps 752 mmHg 47%
    09:00 +15°C° 0 mm 8 mps 752 mmHg 45%
    10:00 +15°C° 0 mm 8 mps 752 mmHg 44%
    11:00 +15°C° 0 mm 8 mps 752 mmHg 43%
    12:00 +15°C° 0 mm 7 mps 753 mmHg 42%
    13:00 +15°C° 0 mm 7 mps 753 mmHg 42%
    14:00 +15°C° 0 mm 7 mps 753 mmHg 42%
    15:00 +15°C° 0 mm 7 mps 753 mmHg 41%
    16:00 +14°C° 0.1 mm 7 mps 754 mmHg 44%
    17:00 +12°C° 0.1 mm 7 mps 755 mmHg 47%
    18:00 +11°C° 0.1 mm 7 mps 756 mmHg 50%
    19:00 +10°C° 0.2 mm 6 mps 756 mmHg 52%
    20:00 +9°C° 0.2 mm 6 mps 757 mmHg 54%
    21:00 +9°C° 0.2 mm 6 mps 757 mmHg 57%
    22:00 +9°C° 0.3 mm 5 mps 757 mmHg 57%
    23:00 +8°C° 0.3 mm 5 mps 758 mmHg 57%

    Day after tomorrow, 23 November, Thursday

    Time Temperature Precipitation Wind Pressure Humidity
    00:00 +8°C° 0.3 mm 4 mps 758 mmHg 58%
    01:00 +8°C° 0.2 mm 4 mps 758 mmHg 58%
    02:00 +9°C° 0.2 mm 3 mps 758 mmHg 59%
    03:00 +9°C° 0.2 mm 3 mps 759 mmHg 59%
    04:00 +8°C° 0.3 mm 3 mps 759 mmHg 60%
    05:00 +8°C° 0.3 mm 3 mps 759 mmHg 61%
    06:00 +8°C° 0.3 mm 3 mps 759 mmHg 62%
    07:00 +8°C° 0.4 mm 2 mps 760 mmHg 61%
    08:00 +8°C° 0.4 mm 2 mps 760 mmHg 61%
    09:00 +9°C° 0.4 mm 1 mps 760 mmHg 61%
    10:00 +9°C° 0.1 mm 1 mps 760 mmHg 58%
    11:00 +10°C° 0.1 mm 1 mps 760 mmHg 55%
    12:00 +10°C° 0.1 mm 1 mps 760 mmHg 52%
    13:00 +10°C° 0 mm 1 mps 760 mmHg 50%
    14:00 +11°C° 0 mm 1 mps 760 mmHg 48%
    15:00 +11°C° 0 mm 1 mps 760 mmHg 46%
    16:00 +10°C° 0 mm 1 mps 760 mmHg 48%
    17:00 +10°C° 0 mm 1 mps 761 mmHg 49%
    18:00 +9°C° 0 mm 1 mps 762 mmHg 50%
    19:00 +8°C° 0 mm 2 mps 762 mmHg 49%
    20:00 +7°C° 0 mm 2 mps 762 mmHg 48%
    21:00 +7°C° 0 mm 3 mps 762 mmHg 47%
    22:00 +7°C° 0 mm 3 mps 763 mmHg 45%
    23:00 +5°C° 0 mm 4 mps 763 mmHg 44%

    24 November, Friday

    Time Temperature Precipitation Wind Pressure Humidity
    00:00 +5°C° 0 mm 5 mps 763 mmHg 42%
    01:00 +5°C° 0 mm 5 mps 763 mmHg 42%
    02:00 +5°C° 0 mm 5 mps 763 mmHg 43%
    03:00 +5°C° 0 mm 5 mps 764 mmHg 43%
    04:00 +5°C° 0 mm 5 mps 764 mmHg 44%
    05:00 +5°C° 0 mm 5 mps 764 mmHg 44%
    06:00 +3°C° 0 mm 5 mps 764 mmHg 44%
    07:00 +5°C° 0 mm 5 mps 765 mmHg 42%
    08:00 +6°C° 0 mm 5 mps 765 mmHg 39%
    09:00 +6°C° 0 mm 5 mps 765 mmHg 36%
    10:00 +7°C° 0 mm 5 mps 764 mmHg 33%
    11:00 +7°C° 0 mm 5 mps 764 mmHg 31%
    12:00 +8°C° 0 mm 5 mps 764 mmHg 28%
    13:00 +8°C° 0 mm 5 mps 764 mmHg 28%
    14:00 +8°C° 0 mm 5 mps 764 mmHg 28%
    15:00 +8°C° 0 mm 4 mps 764 mmHg 28%
    16:00 +7°C° 0 mm 4 mps 764 mmHg 30%
    17:00 +8°C° 0 mm 3 mps 765 mmHg 33%
    18:00 +7°C° 0 mm 3 mps 765 mmHg 35%
    19:00 +7°C° 0 mm 3 mps 766 mmHg 37%
    20:00 +5°C° 0 mm 3 mps 766 mmHg 38%
    21:00 +5°C° 0 mm 3 mps 766 mmHg 40%
    22:00 +5°C° 0 mm 3 mps 766 mmHg 40%
    23:00 +5°C° 0 mm 3 mps 766 mmHg 40%

    25 November, Saturday

    Time Temperature Precipitation Wind Pressure Humidity
    00:00 +5°C° 0 mm 3 mps 767 mmHg 41%
    01:00 +4°C° 0 mm 3 mps 767 mmHg 42%
    02:00 +4°C° 0 mm 3 mps 767 mmHg 42%
    03:00 +4°C° 0 mm 3 mps 767 mmHg 43%
    04:00 +4°C° 0 mm 3 mps 768 mmHg 45%
    05:00 +4°C° 0 mm 4 mps 768 mmHg 46%
    06:00 +4°C° 0 mm 4 mps 768 mmHg 48%
    07:00 +4°C° 0 mm 4 mps 769 mmHg 47%
    08:00 +5°C° 0 mm 5 mps 769 mmHg 46%
    09:00 +6°C° 0 mm 5 mps 770 mmHg 45%
    10:00 +7°C° 0 mm 6 mps 770 mmHg 41%
    11:00 +8°C° 0 mm 6 mps 770 mmHg 37%
    12:00 +8°C° 0 mm 7 mps 770 mmHg 33%
    13:00 +9°C° 0 mm 7 mps 770 mmHg 32%
    14:00 +9°C° 0 mm 6 mps 770 mmHg 32%
    15:00 +9°C° 0 mm 6 mps 770 mmHg 31%
    16:00 +8°C° 0 mm 5 mps 771 mmHg 34%
    17:00 +7°C° 0 mm 4 mps 771 mmHg 37%
    18:00 +7°C° 0 mm 3 mps 772 mmHg 39%
    19:00 +7°C° 0 mm 3 mps 773 mmHg 40%
    20:00 +5°C° 0 mm 3 mps 773 mmHg 42%
    21:00 +6°C° 0 mm 2 mps 774 mmHg 43%
    22:00 +5°C° 0 mm 2 mps 774 mmHg 42%
    23:00 +5°C° 0 mm 2 mps 774 mmHg 42%

    26 November, Sunday

    Time Temperature Precipitation Wind Pressure Humidity
    00:00 +5°C° 0 mm 2 mps 774 mmHg 42%
    01:00 +4°C° 0 mm 2 mps 774 mmHg 42%
    02:00 +4°C° 0 mm 2 mps 774 mmHg 42%
    03:00 +4°C° 0 mm 2 mps 773 mmHg 41%
    04:00 +3°C° 0 mm 2 mps 773 mmHg 41%
    05:00 +3°C° 0 mm 2 mps 773 mmHg 40%
    06:00 +3°C° 0 mm 2 mps 773 mmHg 40%
    07:00 +4°C° 0 mm 2 mps 773 mmHg 37%
    08:00 +5°C° 0 mm 2 mps 773 mmHg 33%
    09:00 +6°C° 0 mm 2 mps 773 mmHg 30%
    10:00 +7°C° 0 mm 2 mps 772 mmHg 29%
    11:00 +7°C° 0 mm 2 mps 772 mmHg 28%
    12:00 +8°C° 0 mm 2 mps 771 mmHg 27%
    13:00 +8°C° 0 mm 2 mps 771 mmHg 27%
    14:00 +9°C° 0 mm 2 mps 771 mmHg 27%
    15:00 +9°C° 0 mm 2 mps 770 mmHg 27%
    16:00 +9°C° 0 mm 1 mps 771 mmHg 30%
    17:00 +8°C° 0 mm 1 mps 771 mmHg 33%
    18:00 +7°C° 0 mm 1 mps 771 mmHg 35%
    19:00 +6°C° 0 mm 1 mps 771 mmHg 36%
    20:00 +6°C° 0 mm 1 mps 771 mmHg 37%
    21:00 +6°C° 0 mm 1 mps 772 mmHg 37%
    22:00 +5°C° 0 mm 1 mps 771 mmHg 38%
    23:00 +5°C° 0 mm 1 mps 771 mmHg 38%
    Show more